Change the Weather History Date:

Wednesday, December 12, 2012

  Actual Average Record
Temperature  
Mean Temperature 41 °F 30 °F  
Max Temperature 54 °F 40 °F 70 °F (1921)
Min Temperature 27 °F 21 °F -11 °F (1932)
Degree Days  
Heating Degree Days 24 35  
Month to date heating degree days 308 398  
Since 1 July heating degree days 1338 1490  
Cooling Degree Days 0 0  
Month to date cooling degree days 0 0  
Year to date cooling degree days 1643 1349  
Moisture  
Dew Point 15 °F    
Average Humidity 37    
Maximum Humidity 53    
Minimum Humidity 20    
Precipitation  
Precipitation 0.00 in 0.04 in 0.30 in (1907)
Month to date precipitation T 0.40  
Year to date precipitation 23.08 27.44  
Snow  
Snow 0.00 in 0.10 in 3.20 in (1972)
Month to date snowfall 0.0 1.5  
Year to date snowfall 5.8 17.9  
Since 1 July snowfall 0.0 4.2  
Snow Depth 0.00 in    
Sea Level Pressure  
Sea Level Pressure 30.01 in    
Wind  
Wind Speed 19 mph (South)    
Max Wind Speed 29 mph    
Max Gust Speed 38 mph    
Visibility 10 miles    
Events      
T = Trace of Precipitation, MM = Missing Value Source: NWS Daily Summary

Daily Weather History Graph

Daily Weather History Graph

Search for Another Location

Airport or City:

Trip Planner

Search our weather history database for the weather conditions in past years. The results will help you decide how hot, cold, wet, or windy it might be!

Date:

Astronomy

Dec. 12, 2012 Rise Set
Actual Time 7:42 AM CST 5:07 PM CST
Civil Twilight 7:11 AM CST 5:37 PM CST
Nautical Twilight 6:38 AM CST 6:11 PM CST
Astronomical Twilight 6:05 AM CST 6:43 PM CST
Moon 6:48 AM CST (12/12) 4:45 PM CST (12/12)
Length of Visible Light 10h 25m
Length of Day
9h 24m
Waning Crescent, 1% of the Moon is Illuminated
Dec 12
Waning Crescent
Dec 13
New
Dec 19
First Quarter
Dec 28
Full
Jan 4
Last Quarter

Hourly Weather History & Observations

Time (CST) Temp. Windchill Dew Point Humidity Pressure Visibility Wind Dir Wind Speed Gust Speed Precip Events Conditions
12:55 AM 30.0 °F 18.7 °F 14.0 °F 51% 30.03 in 10.0 mi South 16.1 mph - N/A   Clear
1:55 AM 28.9 °F 18.6 °F 14.0 °F 54% 30.03 in 10.0 mi SSW 12.7 mph - N/A   Clear
2:55 AM 30.9 °F 20.2 °F 14.0 °F 50% 30.03 in 10.0 mi South 15.0 mph - N/A   Clear
3:55 AM 30.0 °F 19.1 °F 12.9 °F 49% 30.02 in 10.0 mi South 15.0 mph - N/A   Clear
4:55 AM 28.9 °F 16.5 °F 12.9 °F 51% 30.01 in 10.0 mi South 18.4 mph - N/A   Clear
5:55 AM 28.9 °F 15.8 °F 12.9 °F 51% 30.02 in 10.0 mi South 20.7 mph - N/A   Clear
6:55 AM 28.0 °F 16.1 °F 12.9 °F 53% 30.04 in 10.0 mi South 16.1 mph - N/A   Clear
7:55 AM 28.0 °F 16.1 °F 12.9 °F 53% 30.06 in 10.0 mi South 16.1 mph - N/A   Clear
8:55 AM 30.9 °F 19.4 °F 15.1 °F 52% 30.06 in 10.0 mi South 17.3 mph - N/A   Clear
9:55 AM 37.0 °F 26.2 °F 16.0 °F 42% 30.06 in 10.0 mi South 21.9 mph 27.6 mph N/A   Clear
10:55 AM 43.0 °F 33.8 °F 16.0 °F 34% 30.04 in 10.0 mi SSW 23.0 mph 31.1 mph N/A   Clear
11:55 AM 48.0 °F - 16.0 °F 28% 30.02 in 10.0 mi South 25.3 mph 33.4 mph N/A   Clear
12:55 PM 51.1 °F - 15.1 °F 24% 30.01 in 10.0 mi SSW 25.3 mph 34.5 mph N/A   Clear
1:55 PM 53.1 °F - 15.1 °F 22% 29.98 in 10.0 mi South 23.0 mph 27.6 mph N/A   Clear
2:55 PM 53.1 °F - 14.0 °F 21% 29.96 in 10.0 mi South 26.5 mph 34.5 mph N/A   Clear
3:55 PM 51.1 °F - 15.1 °F 24% 29.96 in 10.0 mi South 18.4 mph 31.1 mph N/A   Clear
4:55 PM 48.0 °F - 15.1 °F 27% 29.97 in 10.0 mi South 17.3 mph 25.3 mph N/A   Clear
5:55 PM 45.0 °F 38.2 °F 15.1 °F 30% 29.97 in 10.0 mi South 15.0 mph - N/A   Clear
6:55 PM 43.0 °F 36.0 °F 15.1 °F 32% 29.99 in 10.0 mi South 13.8 mph - N/A   Clear
7:55 PM 44.1 °F 36.2 °F 15.1 °F 31% 29.99 in 10.0 mi South 18.4 mph 24.2 mph N/A   Clear
8:55 PM 42.1 °F 33.9 °F 16.0 °F 35% 29.99 in 10.0 mi South 17.3 mph - N/A   Clear
9:55 PM 42.1 °F 33.3 °F 16.0 °F 35% 29.99 in 10.0 mi South 19.6 mph - N/A   Clear
10:55 PM 41.0 °F 31.9 °F 16.0 °F 36% 29.99 in 10.0 mi South 19.6 mph 27.6 mph N/A   Clear
11:55 PM 41.0 °F 31.1 °F 17.1 °F 38% 29.96 in 10.0 mi South 23.0 mph 32.2 mph N/A   Clear